GW6898 Weather Reports


Display with metric or nautical units.
time (UTC)temp
F
wind
direction
speed
MPH
gust
MPH
rain 1hr
in
rain 24hr
in
rain mn
in
humidity
%
barometer
mb
20260507201509 55 188 0.0 2.0 0.00 0.26 0.17 82 1014.7
20260507200012 56 69 0.0 1.0 0.00 0.28 0.17 80 1015.0
20260507194519 56 221 0.0 1.0 0.00 0.28 0.17 79 1014.9
20260507193023 57 226 0.0 2.0 0.00 0.29 0.17 78 1014.8
20260507191525 58 167 0.0 3.0 0.00 0.29 0.17 77 1014.5
20260507190011 59 8 0.0 3.0 0.00 0.29 0.17 74 1014.2
20260507184515 61 8 2.0 2.0 0.00 0.29 0.17 71 1014.0
20260507183022 62 191 1.0 2.0 0.00 0.30 0.17 67 1013.9
20260507181529 64 167 1.0 3.0 0.00 0.30 0.17 61 1013.8
20260507180027 67 162 2.0 3.0 0.00 0.30 0.17 55 1013.5
20260507174514 71 174 1.0 2.0 0.00 0.31 0.17 46 1013.3
20260507173030 71 146 1.0 3.0 0.00 0.33 0.17 44 1013.2
20260507171524 70 96 1.0 4.0 0.00 0.34 0.17 44 1013.1
20260507170026 70 158 1.0 4.0 0.00 0.34 0.17 44 1013.0
20260507164527 70 150 1.0 4.0 0.00 0.38 0.17 43 1013.2
20260507163016 70 233 0.0 4.0 0.00 0.41 0.17 43 1013.1
20260507161521 70 239 0.0 4.0 0.00 0.56 0.17 43 1013.1
20260507160026 70 118 1.0 6.0 0.00 0.75 0.17 43 1013.0
20260507154525 70 311 3.0 6.0 0.00 0.81 0.17 41 1013.1
20260507153025 71 293 0.0 6.0 0.00 0.82 0.17 43 1013.2
20260507151514 70 168 3.0 7.0 0.00 0.86 0.17 42 1013.2
20260507150025 70 154 4.0 8.0 0.00 0.86 0.17 43 1013.4
20260507144529 71 198 0.0 8.0 0.00 0.86 0.17 43 1013.4
20260507143034 71 129 4.0 9.0 0.00 0.87 0.17 42 1013.6
20260507141528 70 163 4.0 11.0 0.00 0.87 0.17 44 1013.7
20260507140022 70 226 1.0 9.0 0.00 1.12 0.17 42 1013.7
20260507134527 70 156 1.0 7.0 0.00 1.12 0.17 42 1013.9
20260507133025 70 103 2.0 7.0 0.00 1.12 0.17 44 1013.9
20260507131531 69 193 4.0 8.0 0.00 1.12 0.17 46 1014.0
20260507130027 70 188 2.0 6.0 0.00 1.12 0.17 42 1014.1
20260507124529 71 228 2.0 5.0 0.00 1.12 0.17 43 1014.1
20260507123023 70 168 4.0 9.0 0.00 1.12 0.17 46 1014.1
20260507121528 70 156 4.0 8.0 0.00 1.12 0.17 44 1014.2
20260507120027 71 149 5.0 11.0 0.00 1.12 0.17 44 1014.3
20260507114515 70 342 3.0 7.0 0.00 1.12 0.17 48 1014.5
20260507113020 70 198 2.0 7.0 0.00 1.12 0.17 49 1014.6
20260507111504 69 269 2.0 10.0 0.00 1.12 0.17 50 1014.7
20260507110010 68 117 4.0 9.0 0.00 1.12 0.17 49 1014.9
20260507104516 67 228 2.0 4.0 0.00 1.12 0.17 55 1015.0
20260507103020 67 156 1.0 8.0 0.00 1.12 0.17 59 1015.2
20260507101522 66 214 1.0 7.0 0.00 1.12 0.17 64 1015.3
20260507100032 64 167 0.0 5.0 0.00 1.12 0.17 67 1015.4
20260507094509 62 149 1.0 5.0 0.00 1.12 0.17 70 1015.5
20260507093015 63 321 2.0 4.0 0.00 1.12 0.17 71 1015.5
20260507091529 61 143 2.0 6.0 0.00 1.12 0.17 72 1015.6
20260507090032 62 311 3.0 5.0 0.00 1.12 0.17 74 1015.7
20260507084529 61 191 0.0 3.0 0.00 1.12 0.17 77 1015.6
20260507083014 59 25 0.0 3.0 0.00 1.12 0.17 80 1015.6
20260507081520 58 283 0.0 2.0 0.00 1.13 0.17 86 1015.5
20260507080024 55 36 0.0 2.0 0.00 1.13 0.17 90 1015.5
20260507074527 54 300 1.0 3.0 0.00 1.13 0.17 93 1015.5
20260507073029 53 168 0.0 0.0 0.00 1.13 0.17 95 1015.5
20260507071514 52 302 0.0 3.0 0.00 1.13 0.17 95 1015.5
20260507070024 51 312 0.0 2.0 0.00 1.13 0.17 95 1015.5
20260507064525 50 339 2.0 3.0 0.00 1.13 0.17 95 1015.5
20260507063026 50 1 0.0 2.0 0.00 1.13 0.17 95 1015.4
20260507061529 49 298 0.0 0.0 0.00 1.17 0.17 95 1015.3
20260507060016 49 225 0.0 1.0 0.00 1.19 0.17 95 1015.1
20260507054530 49 319 2.0 3.0 0.00 1.19 0.17 95 1015.0
20260507053024 49 57 2.0 4.0 0.00 1.19 0.17 95 1014.8
20260507051526 48 231 0.0 3.0 0.00 1.19 0.17 95 1014.8
20260507050032 48 191 1.0 2.0 0.00 1.19 0.17 95 1014.7
20260507044517 48 198 2.0 3.0 0.00 1.19 0.17 95 1014.6
20260507043024 49 335 0.0 2.0 0.00 1.20 0.17 95 1014.4
20260507041523 49 349 0.0 0.0 0.00 1.23 0.17 94 1014.3
20260507040026 49 283 0.0 1.0 0.00 1.28 0.17 95 1014.1
20260507034514 49 176 1.0 3.0 0.00 1.47 0.17 94 1014.0
20260507033023 49 195 0.0 0.0 0.00 1.54 0.17 94 1013.9
20260507031521 49 195 0.0 2.0 0.00 1.56 0.17 94 1013.9
20260507030008 50 14 0.0 0.0 0.00 1.56 0.17 94 1013.8
20260507024512 50 20 0.0 1.0 0.00 1.63 0.17 93 1013.9
20260507023014 50 202 0.0 2.0 0.00 1.77 0.17 93 1013.8
20260507021520 51 167 1.0 2.0 0.00 1.81 0.17 93 1014.0
20260507020029 52 139 0.0 0.0 0.00 1.83 0.17 92 1013.8
20260507014510 52 160 0.0 1.0 0.00 1.83 0.17 92 1013.7
20260507013030 53 200 1.0 5.0 0.00 1.83 0.17 91 1013.7
20260507011518 53 61 5.0 6.0 0.01 1.83 0.17 92 1013.7
20260507010026 53 46 3.0 4.0 0.04 1.83 0.17 92 1013.7
20260507004524 52 66 1.0 2.0 0.05 1.83 0.17 92 1013.9
20260507003008 53 59 1.0 6.0 0.07 1.83 0.17 92 1013.8
20260507001512 53 72 2.0 5.0 0.09 1.82 0.16 92 1014.0
20260507000018 53 30 0.0 4.0 0.12 1.79 0.13 92 1014.1
20260506234522 53 55 3.0 3.0 0.11 1.78 0.12 92 1013.9
20260506233027 53 73 2.0 4.0 0.09 1.82 0.10 92 1014.2
20260506231512 53 55 1.0 3.0 0.06 2.13 0.07 91 1014.3
20260506230016 53 8 0.0 1.0 0.01 2.26 0.01 91 1014.3
20260506224520 53 60 3.0 7.0 0.02 2.56 0.01 91 1014.0
20260506223034 54 53 2.0 3.0 0.02 2.62 0.01 90 1014.0
20260506221528 54 50 2.0 5.0 0.03 2.62 0.01 90 1014.0
20260506220028 54 231 2.0 11.0 0.04 2.61 0.00 90 1014.1
20260506214531 54 215 2.0 7.0 0.05 2.60 2.60 91 1013.9
20260506213021 54 209 0.0 2.0 0.06 2.60 2.60 92 1013.9
20260506211506 54 62 0.0 4.0 0.07 2.59 2.59 92 1014.0
20260506210007 55 58 0.0 4.0 0.07 2.57 2.57 91 1013.8
20260506204514 55 205 2.0 4.0 0.05 2.55 2.55 91 1013.6
20260506203020 55 233 2.0 3.0 0.05 2.54 2.54 91 1013.5